MSR335 OEJN-HECA

Flight info

Callsign MSR335
Flight time N/A
Altitude 36000
Route MIGDA L677 CVO
Aircraft A320/M-SDE3FGHIRWY/LB1

Departure

Time 2026-04-28 21:39
Airport King Abdulaziz International Airport (OEJN)

Arrival

Time N/A
Airport Cairo International Airport (HECA)
Time Latitude Longitude Altitude Speed Heading
2026-04-28 20:55 21.67011 39.17146 48 ft 0 kts 282°
2026-04-28 21:26 21.67009 39.17158 48 ft 4 kts 282°
2026-04-28 21:26 21.67003 39.17187 47 ft 4 kts 282°
2026-04-28 21:26 21.66997 39.17215 45 ft 4 kts 290°
2026-04-28 21:26 21.66985 39.17240 47 ft 4 kts 311°
2026-04-28 21:27 21.66966 39.17255 47 ft 4 kts
2026-04-28 21:27 21.66955 39.17254 45 ft 1 kts 12°
2026-04-28 21:28 21.66955 39.17253 46 ft 0 kts 12°
2026-04-28 21:33 21.66956 39.17254 46 ft 1 kts 13°
2026-04-28 21:33 21.66964 39.17256 48 ft 2 kts 13°
2026-04-28 21:34 21.66980 39.17260 48 ft 3 kts 13°
2026-04-28 21:34 21.67003 39.17266 50 ft 4 kts 16°
2026-04-28 21:34 21.67032 39.17278 51 ft 5 kts 22°
2026-04-28 21:34 21.67067 39.17297 49 ft 6 kts 30°
2026-04-28 21:35 21.67104 39.17324 48 ft 7 kts 37°
2026-04-28 21:35 21.67144 39.17359 51 ft 8 kts 39°
2026-04-28 21:35 21.67184 39.17403 52 ft 9 kts 59°
2026-04-28 21:35 21.67203 39.17468 51 ft 9 kts 89°
2026-04-28 21:36 21.67159 39.17513 51 ft 10 kts 159°
2026-04-28 21:36 21.67091 39.17542 54 ft 11 kts 159°
2026-04-28 21:36 21.67016 39.17573 54 ft 12 kts 163°
2026-04-28 21:36 21.66933 39.17602 52 ft 13 kts 160°
2026-04-28 21:37 21.66842 39.17638 54 ft 15 kts 160°
2026-04-28 21:37 21.66740 39.17679 50 ft 16 kts 159°
2026-04-28 21:37 21.66633 39.17724 54 ft 17 kts 158°
2026-04-28 21:37 21.66600 39.17825 54 ft 16 kts 78°
2026-04-28 21:38 21.66634 39.17941 53 ft 17 kts 70°
2026-04-28 21:38 21.66703 39.18023 58 ft 15 kts 356°
2026-04-28 21:38 21.66823 39.17979 57 ft 32 kts 340°
2026-04-28 21:38 21.67237 39.17818 54 ft 92 kts 339°
2026-04-28 21:39 21.68000 39.17518 52 ft 140 kts 339°
2026-04-28 21:39 21.69035 39.17110 109 ft 169 kts 339°
2026-04-28 21:39 21.70094 39.16697 771 ft 157 kts 339°
2026-04-28 21:39 21.71125 39.16393 1401 ft 150 kts 348°
2026-04-28 21:40 21.72117 39.16212 2012 ft 138 kts 350°
2026-04-28 21:40 21.73032 39.16057 2428 ft 137 kts 350°
2026-04-28 21:40 21.74023 39.15888 2658 ft 147 kts 350°
2026-04-28 21:40 21.74962 39.15728 3215 ft 132 kts 350°
2026-04-28 21:41 21.75946 39.15559 3331 ft 153 kts 350°
2026-04-28 21:41 21.76936 39.15389 3944 ft 132 kts 350°
2026-04-28 21:41 21.77884 39.15227 4090 ft 152 kts 350°
2026-04-28 21:41 21.79072 39.15020 3966 ft 192 kts 351°
2026-04-28 21:42 21.80447 39.15189 4201 ft 210 kts 29°
2026-04-28 21:42 21.81606 39.16168 4661 ft 217 kts 37°
2026-04-28 21:42 21.83043 39.16736 5002 ft 229 kts 356°
2026-04-28 21:42 21.84578 39.16220 5476 ft 240 kts 329°
2026-04-28 21:43 21.85999 39.15222 5914 ft 256 kts 324°
2026-04-28 21:43 21.87491 39.14068 6408 ft 270 kts 324°
2026-04-28 21:43 21.89067 39.12916 7110 ft 276 kts 327°
2026-04-28 21:43 21.90707 39.11822 7867 ft 278 kts 329°
2026-04-28 21:44 21.92402 39.10784 8604 ft 282 kts 331°
2026-04-28 21:44 21.94141 39.09783 9324 ft 285 kts 332°
2026-04-28 21:44 21.95915 39.08800 10017 ft 288 kts 333°
2026-04-28 21:44 21.97723 39.07816 10547 ft 298 kts 333°
2026-04-28 21:45 21.99628 39.06784 10865 ft 314 kts 333°
2026-04-28 21:45 22.01636 39.05699 11138 ft 331 kts 333°
2026-04-28 21:45 22.03739 39.04562 11394 ft 346 kts 333°
2026-04-28 21:45 22.05895 39.03392 11852 ft 353 kts 333°
2026-04-28 21:46 22.08101 39.02190 12445 ft 357 kts 333°
2026-04-28 21:46 22.10325 39.00975 13045 ft 359 kts 333°
2026-04-28 21:46 22.12567 38.99750 13633 ft 363 kts 333°
2026-04-28 21:46 22.14830 38.98515 14211 ft 366 kts 333°
2026-04-28 21:47 22.17110 38.97272 14763 ft 369 kts 333°
2026-04-28 21:47 22.19412 38.96016 15304 ft 372 kts 333°
2026-04-28 21:47 22.21726 38.94755 15817 ft 374 kts 333°
2026-04-28 21:47 22.24057 38.93482 16330 ft 377 kts 333°
2026-04-28 21:48 22.26411 38.92194 16844 ft 380 kts 333°
2026-04-28 21:48 22.28777 38.90896 17358 ft 383 kts 333°
2026-04-28 21:48 22.31164 38.89586 17871 ft 386 kts 333°
2026-04-28 21:48 22.33568 38.88267 18382 ft 389 kts 333°
2026-04-28 21:49 22.35990 38.86938 18896 ft 392 kts 333°
2026-04-28 21:49 22.37610 38.86050 19237 ft 394 kts 333°
2026-04-28 21:49 22.40061 38.84706 19744 ft 397 kts 333°
2026-04-28 21:49 22.43372 38.82892 20423 ft 401 kts 333°
2026-04-28 21:50 22.45018 38.81990 20734 ft 403 kts 333°
2026-04-28 21:50 22.48351 38.80166 21323 ft 406 kts 333°
2026-04-28 21:50 22.50883 38.78781 21743 ft 409 kts 333°
2026-04-28 21:50 22.53430 38.77385 22152 ft 411 kts 333°
2026-04-28 21:51 22.55159 38.76432 22422 ft 413 kts 333°
2026-04-28 21:51 22.57713 38.74996 22805 ft 415 kts 329°
2026-04-28 21:51 22.60056 38.73164 23193 ft 417 kts 317°
2026-04-28 21:51 22.62009 38.70837 23561 ft 419 kts 305°
2026-04-28 21:52 22.63483 38.68112 23910 ft 421 kts 294°
2026-04-28 21:52 22.64402 38.65143 24252 ft 423 kts 282°
2026-04-28 21:52 22.64767 38.61981 24569 ft 425 kts 274°
2026-04-28 21:52 22.64970 38.58772 24882 ft 428 kts 274°
2026-04-28 21:53 22.65172 38.55554 25197 ft 430 kts 274°
2026-04-28 21:53 22.65376 38.52324 25505 ft 432 kts 274°
2026-04-28 21:53 22.65583 38.49074 25809 ft 434 kts 274°
2026-04-28 21:53 22.65794 38.45798 26112 ft 436 kts 274°
2026-04-28 21:54 22.66006 38.42515 26413 ft 438 kts 274°
2026-04-28 21:54 22.66215 38.39220 26709 ft 440 kts 274°
2026-04-28 21:54 22.66419 38.35908 26998 ft 442 kts 274°
2026-04-28 21:54 22.66624 38.32584 27282 ft 444 kts 274°
2026-04-28 21:55 22.66830 38.29244 27561 ft 445 kts 274°